DW3611 Weather Reports


Display with metric or nautical units.
time (UTC)temp
F
wind
direction
speed
MPH
gust
MPH
rain 1hr
in
rain 24hr
in
rain mn
in
humidity
%
barometer
mb
20240520150507 80 231 1.0 5.0 0.00 0.00 0.00 78 1013.7
20240520150012 80 204 1.0 5.0 0.00 0.00 0.00 80 1013.6
20240520145508 79 196 0.0 5.0 0.00 0.00 0.00 82 1013.5
20240520145006 78 117 0.0 4.0 0.00 0.00 0.00 83 1013.6
20240520144511 78 121 1.0 4.0 0.00 0.00 0.00 84 1013.7
20240520144009 77 162 0.0 3.0 0.00 0.00 0.00 86 1013.7
20240520143505 76 246 1.0 4.0 0.00 0.00 0.00 87 1013.8
20240520143005 76 212 1.0 4.0 0.00 0.00 0.00 88 1013.8
20240520142503 75 236 1.0 3.0 0.00 0.00 0.00 88 1013.9
20240520142004 75 278 0.0 5.0 0.00 0.00 0.00 88 1013.8
20240520141507 75 261 1.0 5.0 0.00 0.00 0.00 89 1013.9
20240520141006 74 142 0.0 2.0 0.00 0.00 0.00 89 1013.8
20240520140505 74 181 0.0 2.0 0.00 0.00 0.00 90 1013.8
20240520140010 74 74 0.0 2.0 0.00 0.00 0.00 90 1013.8
20240520135504 74 150 0.0 3.0 0.00 0.00 0.00 90 1013.8
20240520135004 73 167 0.0 3.0 0.00 0.00 0.00 91 1013.7
20240520134519 73 188 1.0 3.0 0.00 0.00 0.00 91 1013.7
20240520134007 73 98 0.0 2.0 0.00 0.00 0.00 91 1013.7
20240520133506 73 188 0.0 2.0 0.00 0.00 0.00 91 1013.6
20240520133011 72 9 0.0 5.0 0.00 0.00 0.00 91 1013.5
20240520132505 72 225 1.0 5.0 0.00 0.00 0.00 92 1013.5
20240520132007 72 153 1.0 3.0 0.00 0.00 0.00 92 1013.4
20240520131506 72 217 0.0 3.0 0.00 0.00 0.00 92 1013.4
20240520131005 72 178 1.0 3.0 0.00 0.00 0.00 92 1013.3
20240520130505 71 117 0.0 2.0 0.00 0.00 0.00 91 1013.3
20240520130005 71 31 0.0 2.0 0.00 0.00 0.00 92 1013.1
20240520125507 71 78 0.0 0.0 0.00 0.00 0.00 92 1013.1
20240520125010 71 119 0.0 0.0 0.00 0.01 0.00 91 1013.0
20240520124509 70 166 0.0 0.0 0.00 0.01 0.00 91 1012.9
20240520124009 70 166 0.0 1.0 0.00 0.01 0.00 91 1012.9
20240520123507 70 166 0.0 1.0 0.00 0.01 0.00 91 1012.8
20240520123012 70 166 0.0 1.0 0.00 0.01 0.00 91 1012.7
20240520122513 70 254 0.0 0.0 0.00 0.01 0.00 91 1012.6
20240520122004 70 254 0.0 0.0 0.00 0.01 0.00 90 1012.6
20240520121505 70 254 0.0 0.0 0.00 0.01 0.00 90 1012.4
20240520121004 70 254 0.0 0.0 0.00 0.01 0.00 90 1012.4
20240520120505 70 254 0.0 0.0 0.00 0.01 0.00 90 1012.2
20240520120007 70 254 0.0 0.0 0.00 0.01 0.00 90 1012.1
20240520115506 70 254 0.0 0.0 0.00 0.01 0.00 90 1012.1
20240520115005 70 254 0.0 0.0 0.00 0.01 0.00 90 1011.9
20240520114508 70 254 0.0 0.0 0.00 0.01 0.00 90 1011.8
20240520114007 70 254 0.0 0.0 0.00 0.01 0.00 90 1011.7
20240520113507 70 254 0.0 0.0 0.00 0.01 0.00 89 1012.0
20240520113010 70 254 0.0 0.0 0.00 0.01 0.00 89 1011.9
20240520112504 70 254 0.0 0.0 0.00 0.01 0.00 89 1012.0
20240520112007 70 254 0.0 0.0 0.00 0.01 0.00 89 1012.0
20240520111512 70 254 0.0 0.0 0.00 0.01 0.00 89 1011.9
20240520111005 70 254 0.0 0.0 0.00 0.01 0.00 90 1011.9
20240520110506 70 254 0.0 0.0 0.00 0.01 0.00 89 1011.7
20240520110003 70 254 0.0 0.0 0.00 0.01 0.00 89 1011.6
20240520105504 70 254 0.0 0.0 0.00 0.01 0.00 90 1011.5
20240520105006 70 254 0.0 0.0 0.00 0.01 0.00 89 1011.5
20240520104507 71 254 0.0 3.0 0.00 0.01 0.00 89 1011.4
20240520104004 71 204 0.0 3.0 0.00 0.01 0.00 89 1011.3
20240520103504 71 194 1.0 3.0 0.00 0.01 0.00 89 1011.3
20240520103008 71 179 0.0 3.0 0.00 0.01 0.00 89 1011.2
20240520102507 71 179 1.0 6.0 0.00 0.01 0.00 89 1011.0
20240520102007 71 175 2.0 6.0 0.00 0.01 0.00 90 1011.1
20240520101509 71 252 0.0 5.0 0.00 0.01 0.00 90 1011.2
20240520101009 71 250 0.0 5.0 0.00 0.01 0.00 90 1011.1
20240520100506 71 113 0.0 4.0 0.00 0.01 0.00 89 1011.1
20240520100005 71 150 0.0 4.0 0.00 0.01 0.00 89 1011.1
20240520095505 71 236 0.0 3.0 0.00 0.01 0.00 89 1011.2
20240520095005 71 189 0.0 4.0 0.00 0.01 0.00 89 1011.2
20240520094505 71 223 0.0 4.0 0.00 0.01 0.00 89 1011.2
20240520094005 71 194 1.0 4.0 0.00 0.01 0.00 89 1011.3
20240520093506 71 235 0.0 4.0 0.00 0.01 0.00 89 1011.3
20240520093009 71 127 0.0 4.0 0.00 0.01 0.00 89 1011.4
20240520092505 71 152 0.0 5.0 0.00 0.01 0.00 89 1011.4
20240520092011 71 241 1.0 5.0 0.00 0.01 0.00 89 1011.4
20240520091513 71 191 1.0 5.0 0.00 0.01 0.00 88 1011.5
20240520091009 71 215 1.0 5.0 0.00 0.01 0.00 88 1011.7
20240520090510 71 213 1.0 3.0 0.00 0.01 0.00 88 1011.8
20240520090011 71 194 0.0 0.0 0.00 0.01 0.00 88 1011.8
20240520085506 71 195 0.0 0.0 0.00 0.01 0.00 88 1011.9
20240520085004 71 187 0.0 0.0 0.00 0.01 0.00 88 1011.9
20240520084505 71 191 0.0 2.0 0.00 0.01 0.00 88 1011.9
20240520084004 71 245 0.0 2.0 0.00 0.01 0.00 88 1011.9
20240520083509 71 184 0.0 3.0 0.00 0.01 0.00 88 1011.8
20240520083009 71 234 0.0 3.0 0.00 0.01 0.00 87 1012.0
20240520082507 71 222 0.0 1.0 0.00 0.01 0.00 87 1012.0
20240520082007 71 222 0.0 2.0 0.00 0.01 0.00 87 1012.0
20240520081509 71 222 0.0 2.0 0.00 0.01 0.00 87 1012.0
20240520081007 71 234 0.0 2.0 0.00 0.01 0.00 87 1012.0
20240520080507 71 242 0.0 2.0 0.00 0.01 0.00 87 1012.0
20240520080011 72 196 0.0 0.0 0.00 0.01 0.00 87 1012.0
20240520075508 72 190 0.0 0.0 0.00 0.01 0.00 87 1012.1
20240520075012 72 190 0.0 0.0 0.00 0.01 0.00 87 1012.3
20240520074505 72 195 0.0 0.0 0.00 0.01 0.00 86 1012.3
20240520074005 72 195 0.0 0.0 0.00 0.01 0.00 86 1012.3
20240520073504 72 195 0.0 1.0 0.00 0.01 0.00 86 1012.2
20240520073004 72 195 0.0 1.0 0.00 0.01 0.00 86 1012.3
20240520072503 72 195 0.0 1.0 0.00 0.01 0.00 86 1012.3
20240520072004 72 195 0.0 3.0 0.00 0.01 0.00 86 1012.5
20240520071509 72 159 0.0 3.0 0.00 0.01 0.00 86 1012.4
20240520071007 72 156 0.0 4.0 0.00 0.01 0.00 86 1012.4
20240520070509 72 158 0.0 4.0 0.00 0.01 0.00 86 1012.3
20240520070011 73 189 0.0 2.0 0.00 0.01 0.00 86 1012.3
20240520065504 73 215 0.0 3.0 0.00 0.01 0.00 86 1012.4
20240520065007 73 215 0.0 3.0 0.00 0.01 0.00 86 1012.4
20240520064512 73 217 0.0 3.0 0.00 0.01 0.00 86 1012.4
20240520064004 73 194 1.0 4.0 0.00 0.01 0.00 86 1012.3
20240520063505 73 200 1.0 4.0 0.00 0.01 0.00 86 1012.4
20240520063008 73 186 1.0 3.0 0.00 0.01 0.00 86 1012.4
20240520062505 73 143 0.0 3.0 0.00 0.01 0.00 86 1012.3
20240520062004 73 109 1.0 4.0 0.00 0.01 0.00 86 1012.3
20240520061505 73 202 1.0 5.0 0.00 0.01 0.00 86 1012.5
20240520061005 73 186 2.0 5.0 0.00 0.01 0.00 86 1012.6
20240520060505 73 235 1.0 4.0 0.00 0.01 0.00 86 1012.5
20240520060008 73 177 1.0 4.0 0.00 0.01 0.00 86 1012.6
20240520055508 73 236 0.0 4.0 0.00 0.01 0.00 86 1012.7
20240520055008 74 241 1.0 4.0 0.00 0.01 0.00 86 1012.6
20240520054512 74 192 1.0 4.0 0.00 0.01 0.00 86 1012.7
20240520054008 74 248 0.0 4.0 0.00 0.01 0.00 86 1012.7
20240520053505 74 235 1.0 4.0 0.00 0.01 0.00 85 1012.7
20240520053005 74 232 1.0 4.0 0.00 0.01 0.00 85 1012.7
20240520052504 74 221 2.0 4.0 0.00 0.01 0.00 85 1012.5
20240520052008 74 148 0.0 4.0 0.00 0.01 0.00 85 1012.6
20240520051504 74 128 2.0 6.0 0.00 0.01 0.00 85 1012.6
20240520051004 74 235 0.0 6.0 0.00 0.01 0.00 85 1012.7
20240520050506 74 187 0.0 3.0 0.00 0.01 0.00 84 1012.7
20240520050019 74 161 0.0 3.0 0.00 0.01 0.00 84 1012.7
20240520045505 75 264 1.0 3.0 0.00 0.01 0.01 84 1012.7
20240520045009 75 231 1.0 3.0 0.00 0.01 0.01 83 1012.8
20240520044509 75 248 1.0 3.0 0.00 0.01 0.01 83 1012.9
20240520044008 75 181 0.0 3.0 0.00 0.01 0.01 83 1012.9
20240520043508 75 256 0.0 3.0 0.00 0.01 0.01 83 1012.9
20240520043013 75 249 1.0 4.0 0.00 0.01 0.01 83 1012.9
20240520042505 75 190 1.0 5.0 0.00 0.01 0.01 83 1012.9
20240520042004 75 187 1.0 5.0 0.00 0.01 0.01 83 1012.7
20240520041507 75 257 2.0 5.0 0.00 0.01 0.01 83 1012.8
20240520041006 75 213 0.0 5.0 0.00 0.01 0.01 82 1012.7
20240520040503 75 196 0.0 5.0 0.00 0.01 0.01 82 1012.6
20240520040009 75 262 1.0 4.0 0.00 0.01 0.01 82 1012.6
20240520035505 75 172 1.0 4.0 0.00 0.01 0.01 82 1012.6
20240520035004 74 217 1.0 4.0 0.00 0.01 0.01 83 1012.5
20240520034510 74 167 1.0 3.0 0.00 0.01 0.01 83 1012.4
20240520034007 74 209 1.0 4.0 0.00 0.01 0.01 83 1012.4
20240520033504 74 211 0.0 4.0 0.00 0.01 0.01 83 1012.4
20240520033010 74 168 2.0 4.0 0.00 0.01 0.01 83 1012.4
20240520032507 73 148 0.0 2.0 0.00 0.01 0.01 83 1012.4
20240520032010 73 215 0.0 2.0 0.00 0.01 0.01 82 1012.3
20240520031506 74 181 0.0 2.0 0.00 0.01 0.01 83 1012.3
20240520031005 74 34 0.0 2.0 0.00 0.01 0.01 83 1012.3
20240520030505 74 34 0.0 0.0 0.00 0.01 0.01 83 1012.2
20240520030009 74 34 0.0 0.0 0.00 0.01 0.01 82 1012.1
20240520025503 75 34 0.0 0.0 0.00 0.01 0.01 82 1012.0
20240520025005 75 34 0.0 0.0 0.00 0.01 0.01 81 1012.0
20240520024515 75 34 0.0 0.0 0.00 0.01 0.01 82 1011.9
20240520024006 75 34 0.0 0.0 0.00 0.01 0.01 81 1011.9
20240520023505 75 34 0.0 0.0 0.00 0.01 0.01 81 1011.8
20240520023008 76 34 0.0 0.0 0.00 0.01 0.01 81 1011.8
20240520022505 76 34 0.0 0.0 0.00 0.01 0.01 80 1011.7
20240520022008 76 34 0.0 0.0 0.00 0.01 0.01 79 1011.7
20240520021516 76 34 0.0 0.0 0.00 0.01 0.01 79 1011.6
20240520021004 77 34 0.0 0.0 0.00 0.01 0.01 79 1011.6
20240520020503 77 34 0.0 0.0 0.00 0.01 0.01 79 1011.5
20240520020010 77 34 0.0 0.0 0.00 0.01 0.01 78 1011.5
20240520015505 77 34 0.0 0.0 0.00 0.01 0.01 77 1011.5
20240520015004 78 34 0.0 0.0 0.00 0.01 0.01 76 1011.6
20240520014505 78 34 0.0 0.0 0.00 0.01 0.01 76 1011.6
20240520014004 78 34 0.0 0.0 0.00 0.01 0.01 75 1011.6
20240520013508 79 34 0.0 0.0 0.00 0.01 0.01 75 1011.6
20240520013009 79 34 0.0 0.0 0.00 0.01 0.01 75 1011.7
20240520012505 80 34 0.0 0.0 0.00 0.01 0.01 75 1011.7
20240520012009 80 33 0.0 0.0 0.00 0.01 0.01 74 1011.7
20240520011510 80 34 0.0 0.0 0.00 0.01 0.01 73 1011.7
20240520011008 81 32 0.0 0.0 0.00 0.01 0.01 73 1011.8
20240520010507 81 32 0.0 0.0 0.00 0.01 0.01 73 1011.7
20240520010005 81 32 0.0 0.0 0.00 0.01 0.01 72 1011.7
20240520005505 81 33 0.0 0.0 0.00 0.01 0.01 71 1011.8
20240520005004 82 33 0.0 1.0 0.00 0.01 0.01 71 1011.7
20240520004504 82 33 0.0 1.0 0.00 0.01 0.01 69 1011.7
20240520004004 82 34 0.0 1.0 0.00 0.01 0.01 70 1011.8
20240520003504 82 34 0.0 0.0 0.00 0.01 0.01 69 1011.8
20240520003008 82 34 0.0 0.0 0.00 0.01 0.01 73 1011.8
20240520002505 82 34 0.0 0.0 0.00 0.01 0.01 73 1011.8
20240520002007 82 34 0.0 0.0 0.00 0.01 0.01 74 1011.8
20240520001514 82 34 0.0 0.0 0.00 0.01 0.01 72 1011.8
20240520001009 82 34 0.0 0.0 0.00 0.01 0.01 70 1011.8
20240520000505 83 43 0.0 0.0 0.00 0.01 0.01 66 1011.9
20240520000014 83 43 0.0 0.0 0.00 0.01 0.01 66 1011.9
20240519235503 83 43 0.0 1.0 0.00 0.01 0.01 61 1011.9
20240519235006 84 43 0.0 1.0 0.00 0.01 0.01 63 1011.9
20240519234504 84 43 0.0 0.0 0.00 0.01 0.01 61 1011.9
20240519234007 85 43 0.0 1.0 0.00 0.01 0.01 62 1012.0
20240519233503 85 43 0.0 2.0 0.00 0.01 0.01 61 1012.1
20240519233005 85 43 0.0 2.0 0.00 0.01 0.01 60 1012.1
20240519232505 85 43 0.0 2.0 0.00 0.01 0.01 62 1012.1
20240519232005 85 43 0.0 2.0 0.00 0.01 0.01 60 1012.2
20240519231509 86 43 0.0 2.0 0.00 0.01 0.01 58 1012.1
20240519231004 86 205 0.0 1.0 0.00 0.01 0.01 60 1012.2
20240519230509 86 205 0.0 1.0 0.00 0.01 0.01 56 1012.3
20240519230011 87 205 0.0 2.0 0.00 0.01 0.01 60 1012.3
20240519225505 87 205 0.0 3.0 0.00 0.01 0.01 50 1012.3
20240519225007 87 205 0.0 3.0 0.00 0.01 0.01 57 1012.4
20240519224504 87 233 0.0 2.0 0.00 0.01 0.01 55 1012.4
20240519224004 87 233 0.0 3.0 0.00 0.01 0.01 54 1012.4
20240519223507 87 233 0.0 3.0 0.00 0.01 0.01 53 1012.5
20240519223004 87 241 1.0 3.0 0.00 0.01 0.01 54 1012.5
20240519222504 87 236 0.0 2.0 0.00 0.01 0.01 57 1012.5
20240519222005 86 215 0.0 2.0 0.00 0.01 0.01 63 1012.5
20240519221513 85 207 1.0 2.0 0.00 0.01 0.01 66 1012.6
20240519221004 86 240 0.0 2.0 0.00 0.01 0.01 62 1012.7
20240519220507 86 242 0.0 2.0 0.00 0.01 0.01 60 1012.7
20240519220010 86 242 0.0 2.0 0.00 0.01 0.01 60 1012.8
20240519215509 87 242 0.0 4.0 0.00 0.01 0.01 56 1012.8
20240519215011 88 242 1.0 4.0 0.00 0.01 0.01 52 1012.8
20240519214515 88 254 1.0 4.0 0.00 0.01 0.01 52 1012.9
20240519214003 88 230 1.0 3.0 0.00 0.01 0.01 53 1013.0
20240519213505 87 244 2.0 3.0 0.00 0.01 0.01 51 1013.0
20240519213005 84 207 0.0 2.0 0.00 0.01 0.01 68 1013.0
20240519212504 87 221 1.0 2.0 0.00 0.01 0.01 65 1013.1
20240519212004 89 352 0.0 3.0 0.00 0.01 0.01 46 1013.2
20240519211507 89 101 0.0 4.0 0.00 0.01 0.01 49 1013.3
20240519211004 89 113 1.0 4.0 0.00 0.01 0.01 56 1013.4
20240519210505 88 190 1.0 4.0 0.00 0.01 0.01 54 1013.4
20240519210007 88 248 1.0 4.0 0.00 0.01 0.01 58 1013.4
20240519205507 88 175 1.0 4.0 0.00 0.01 0.01 56 1013.5
20240519205005 87 11 1.0 3.0 0.00 0.01 0.01 55 1013.5
20240519204509 87 36 0.0 3.0 0.00 0.01 0.01 57 1013.7
20240519204008 87 43 0.0 4.0 0.00 0.01 0.01 57 1013.8
20240519203507 88 146 1.0 4.0 0.00 0.01 0.01 52 1013.9
20240519203005 88 236 2.0 4.0 0.00 0.01 0.01 51 1013.9
20240519202505 87 230 1.0 3.0 0.00 0.01 0.01 57 1014.0
20240519202005 87 171 0.0 5.0 0.00 0.01 0.01 59 1014.1
20240519201510 87 140 2.0 5.0 0.00 0.01 0.01 53 1014.1
20240519201005 88 201 1.0 4.0 0.00 0.01 0.01 58 1014.2
20240519200508 88 198 1.0 3.0 0.00 0.01 0.01 60 1014.2
20240519200009 88 10 0.0 3.0 0.00 0.01 0.01 51 1014.2
20240519195504 88 5 0.0 2.0 0.00 0.01 0.01 62 1014.3
20240519195004 85 190 0.0 1.0 0.00 0.01 0.01 60 1014.4
20240519194510 85 190 0.0 2.0 0.00 0.01 0.01 63 1014.5
20240519194006 86 190 0.0 3.0 0.00 0.01 0.01 65 1014.5
20240519193505 87 259 0.0 3.0 0.00 0.01 0.01 54 1014.5
20240519193015 88 166 0.0 4.0 0.00 0.01 0.01 54 1014.6
20240519192506 88 205 1.0 5.0 0.00 0.01 0.01 56 1014.6
20240519192004 88 192 2.0 5.0 0.00 0.01 0.01 63 1014.6
20240519191510 88 186 1.0 4.0 0.00 0.01 0.01 52 1014.6
20240519191004 88 229 1.0 4.0 0.00 0.01 0.01 53 1014.6
20240519190503 87 242 2.0 4.0 0.00 0.01 0.01 54 1014.6
20240519190005 88 71 0.0 3.0 0.00 0.01 0.01 61 1014.6
20240519185507 89 348 0.0 3.0 0.00 0.01 0.01 56 1014.6
20240519185007 89 23 1.0 5.0 0.00 0.01 0.01 57 1014.7
20240519184509 88 103 2.0 5.0 0.00 0.01 0.01 57 1014.8
20240519184011 88 115 0.0 5.0 0.00 0.01 0.01 56 1014.8
20240519183505 88 26 1.0 5.0 0.00 0.01 0.01 52 1014.9
20240519183024 87 203 0.0 3.0 0.00 0.01 0.01 50 1014.9
20240519182508 88 5 1.0 4.0 0.00 0.01 0.01 62 1015.0
20240519182008 87 34 1.0 4.0 0.00 0.01 0.01 61 1015.1
20240519181509 87 165 0.0 5.0 0.00 0.01 0.01 62 1015.2
20240519181004 86 267 1.0 5.0 0.00 0.01 0.01 52 1015.2
20240519180504 86 150 0.0 2.0 0.00 0.01 0.01 67 1015.3
20240519180004 85 150 0.0 8.0 0.00 0.01 0.01 58 1015.4
20240519175504 87 80 0.0 8.0 0.00 0.01 0.01 62 1015.5
20240519175004 87 140 1.0 4.0 0.00 0.01 0.01 58 1015.5
20240519174510 87 240 1.0 6.0 0.00 0.01 0.01 60 1015.5
20240519174007 87 262 2.0 6.0 0.00 0.01 0.01 61 1015.7
20240519173507 87 218 2.0 6.0 0.00 0.01 0.01 58 1015.8
20240519173029 87 158 1.0 3.0 0.00 0.01 0.01 56 1015.9
20240519172505 87 32 1.0 5.0 0.00 0.01 0.01 61 1015.9
20240519172005 87 5 1.0 5.0 0.00 0.01 0.01 60 1015.9
20240519171511 87 196 1.0 5.0 0.00 0.01 0.01 55 1015.9
20240519171004 86 12 1.0 5.0 0.00 0.01 0.01 58 1015.9
20240519170503 84 211 1.0 3.0 0.00 0.01 0.01 71 1016.0
20240519170003 83 103 0.0 1.0 0.00 0.01 0.01 70 1016.0
20240519165505 84 103 0.0 3.0 0.00 0.01 0.01 67 1016.1
20240519165008 86 63 0.0 3.0 0.00 0.01 0.01 65 1016.0
20240519164506 86 47 1.0 3.0 0.00 0.01 0.01 67 1016.0
20240519164007 86 28 0.0 3.0 0.00 0.01 0.01 68 1016.0
20240519163505 86 11 1.0 3.0 0.00 0.01 0.01 60 1016.0
20240519163013 86 83 1.0 4.0 0.00 0.01 0.01 73 1016.0
20240519162504 86 167 1.0 4.0 0.00 0.01 0.01 67 1016.0
20240519162006 86 43 1.0 4.0 0.00 0.01 0.01 64 1016.0
20240519161509 86 40 2.0 4.0 0.00 0.01 0.01 62 1016.0
20240519161005 85 183 0.0 3.0 0.00 0.01 0.01 68 1016.0
20240519160507 86 146 0.0 3.0 0.00 0.01 0.01 71 1016.0
20240519160005 86 173 0.0 4.0 0.00 0.01 0.01 67 1016.0
20240519155504 86 65 0.0 4.0 0.00 0.01 0.01 70 1015.9
20240519155005 85 167 1.0 4.0 0.00 0.01 0.01 70 1015.9
20240519154504 84 16 1.0 2.0 0.00 0.01 0.01 73 1016.0
20240519154004 84 248 1.0 4.0 0.00 0.01 0.01 76 1016.0
20240519153508 83 296 1.0 4.0 0.00 0.01 0.01 77 1016.0
20240519153021 83 163 0.0 4.0 0.00 0.01 0.01 77 1016.1
20240519152507 82 144 1.0 4.0 0.00 0.01 0.01 79 1016.1
20240519152005 81 176 0.0 4.0 0.00 0.01 0.01 81 1016.1
20240519151519 81 241 0.0 4.0 0.00 0.01 0.01 83 1016.1
20240519151005 80 218 0.0 4.0 0.00 0.01 0.01 84 1016.2